{"data":{"norad_id":52690,"epoch":"2026-05-25T00:59:18.784896Z","epoch_age_seconds":78714,"freshness":"FRESH","line1":"1 52690U 22053AL  26145.04118964  .00000124  00000+0  25856-4 0  9991","line2":"2 52690  53.2150 161.3634 0001129  77.3054 282.8065 15.08836899222647","mean_motion":15.08836899,"eccentricity":0.0001129,"inclination_deg":53.215,"raan_deg":161.3634,"arg_perigee_deg":77.3054,"mean_anomaly_deg":282.8065,"bstar":2.5856e-5,"rev_number":22264,"period_min":95.437750823457,"perigee_km":538.97183773072,"apogee_km":540.5338972628,"semimajor_km":6917.8898674968,"source":"CELESTRAK","updated_at":"2026-05-25T13:38:17.236405Z"}}